LUCAS (JDRS-1)

Last updated on Thu Nov 21 2024 00:02:44 GMT+0000 (Coordinated Universal Time)

1 47202U 20089A 24325.49468733 -.00000234 00000+0 00000+0 0 9992 2 47202 0.0136 12.9777 0002757 238.7417 77.1654 1.00270306 14669
UTC large
Height (km)
Speed (km/s)
/
Latitude / Longitude
Inclination (degrees)
Orbital Period (minutes)
Azimuth
Elevation
Range (km)
Doppler Factor

Next 0 passes for location: London (51.5072 / 0.1276)

Sorry there are no passes over London.